This demonstration page uses our WeatherBlox Daily Observations layout. Learn more.

Left ArrowRight Arrow

Hourly Observations for July 8, 2020

Temp ( °F °C ) Dew Point ( °F °C ) Humidity (%) Winds ( mph kmh ) Pressure ( in mb ) Visibility ( mi km ) Precip ( " mm )
12:51 am 00:51 Clear 81 27.2 36 2.2 20 20 WNW 7 11 29.7 1006 10 16.0934 0 0
1:51 am 01:51 Clear 79 26.1 36 2.2 21 21 NW 8 13 29.69 1005 10 16.0934 0 0
2:51 am 02:51 Clear 78 25.6 37 2.8 23 23 WNW 3 6 29.7 1006 10 16.0934 0 0
3:51 am 03:51 Clear 77 25 36 2.2 23 23 SE 3 6 29.72 1006 10 16.0934 0 0
4:51 am 04:51 Clear 73 22.8 34 1.1 24 24 ENE 5 7 29.74 1007 10 16.0934 0 0
5:51 am 05:51 Sunny 74 23.3 35 1.7 24 24 SSE 3 6 29.76 1008 10 16.0934 0 0
6:51 am 06:51 Sunny 85 29.4 40 4.4 20 20 NW 5 7 29.76 1008 10 16.0934 0 0
7:51 am 07:51 Sunny 92 33.3 45 7.2 20 20 NW 13 20 29.76 1008 10 16.0934 0 0
8:51 am 08:51 Sunny 95 35 47 8.3 19 19 W 13 20 29.76 1008 10 16.0934 0 0
9:51 am 09:51 Sunny 97 36.1 50 10 20 20 W 16 26 29.76 1008 10 16.0934 0 0
10:51 am 10:51 Sunny 99 37.2 50 10 19 19 WNW 17 28 29.75 1007 10 16.0934 0 0
11:51 am 11:51 Sunny 103 39.4 48 8.9 16 16 WNW 16 26 29.72 1007 10 16.0934 0 0
12:51 pm 12:51 Sunny 104 40 48 8.9 15 15 W 16 26 29.7 1006 10 16.0934 0 0
1:51 pm 13:51 Sunny 106 41.1 47 8.3 14 14 WNW 16 26 29.68 1005 10 16.0934 0 0
2:51 pm 14:51 Sunny 107 41.7 47 8.3 13 13 WNW 15 24 29.66 1004 10 16.0934 0 0
3:51 pm 15:51 Sunny 105 40.6 47 8.3 14 14 NW 10 17 29.64 1004 10 16.0934 0 0
4:51 pm 16:51 Sunny 105 40.6 46 7.8 14 14 NW 17 28 29.62 1003 10 16.0934 0 0
5:51 pm 17:51 Sunny 104 40 45 7.2 13 13 WNW 17 28 29.62 1003 10 16.0934 0 0
6:51 pm 18:51 Sunny 101 38.3 44 6.7 14 14 NW 13 20 29.62 1003 10 16.0934 0 0
7:51 pm 19:51 Clear 98 36.7 44 6.7 16 16 NW 15 24 29.63 1003 10 16.0934 0 0
8:51 pm 20:51 Clear 93 33.9 45 7.2 19 19 NW 9 15 29.65 1004 10 16.0934 0 0
9:51 pm 21:51 Clear 91 32.8 46 7.8 21 21 WNW 8 13 29.67 1005 10 16.0934 0 0
10:51 pm 22:51 Clear 89 31.7 47 8.3 23 23 WNW 9 15 29.68 1005 10 16.0934 0 0
11:51 pm 23:51 Clear 86 30 47 8.3 26 26 WNW 8 13 29.68 1005 10 16.0934 0 0

Powered by AerisWeather